Time,TemperatureF,DewpointF,PressureIn,WindDirection,WindDirectionDegrees,WindSpeedMPH,WindSpeedGustMPH,Humidity,HourlyPrecipIn,Conditions,Clouds,dailyrainin,SoftwareType,DateUTC
2013-01-24 00:05:00,49.9,27.7,30.16,ESE,103,0.0,0.0,42,0.00,,,0.00,Wunderground v.1.15,2013-01-24 07:05:00,
2013-01-24 00:11:00,49.3,27.7,30.17,ESE,103,0.0,0.0,43,0.00,,,0.00,Wunderground v.1.15,2013-01-24 07:11:00,
2013-01-24 00:16:00,49.3,28.3,30.17,SE,146,0.0,0.0,44,0.00,,,0.00,Wunderground v.1.15,2013-01-24 07:16:00,
2013-01-24 00:22:00,49.7,28.6,30.17,SSE,148,0.0,0.0,44,0.00,,,0.00,Wunderground v.1.15,2013-01-24 07:22:00,
2013-01-24 00:27:00,51.0,29.3,30.17,SSE,147,0.0,0.0,43,0.00,,,0.00,Wunderground v.1.15,2013-01-24 07:27:00,
2013-01-24 00:33:00,51.3,29.0,30.17,East,93,0.0,0.0,42,0.00,,,0.00,Wunderground v.1.15,2013-01-24 07:33:00,
2013-01-24 00:38:00,51.1,28.8,30.17,East,84,2.0,3.0,42,0.00,,,0.00,Wunderground v.1.15,2013-01-24 07:38:00,
2013-01-24 00:44:00,50.3,28.6,30.17,East,82,0.0,2.0,43,0.00,,,0.00,Wunderground v.1.15,2013-01-24 07:44:00,
2013-01-24 00:49:00,50.1,29.0,30.17,East,82,0.0,2.0,44,0.00,,,0.00,Wunderground v.1.15,2013-01-24 07:49:00,
2013-01-24 00:55:00,50.0,28.9,30.17,ENE,75,1.0,2.0,44,0.00,,,0.00,Wunderground v.1.15,2013-01-24 07:55:00,
2013-01-24 01:00:00,49.7,29.2,30.17,ENE,66,2.0,2.0,45,0.00,,,0.00,Wunderground v.1.15,2013-01-24 08:00:00,
2013-01-24 01:06:00,49.9,29.4,30.17,ENE,71,2.0,3.0,45,0.00,,,0.00,Wunderground v.1.15,2013-01-24 08:06:00,
2013-01-24 01:11:00,50.4,29.8,30.17,ENE,74,3.0,3.0,45,0.00,,,0.00,Wunderground v.1.15,2013-01-24 08:11:00,
2013-01-24 01:16:00,51.0,29.8,30.17,ENE,70,3.0,3.0,44,0.00,,,0.00,Wunderground v.1.15,2013-01-24 08:16:00,
2013-01-24 01:22:00,51.4,30.2,30.17,ENE,65,3.0,3.0,44,0.00,,,0.00,Wunderground v.1.15,2013-01-24 08:22:00,
2013-01-24 01:27:00,51.8,30.0,30.17,ENE,61,3.0,3.0,43,0.00,,,0.00,Wunderground v.1.15,2013-01-24 08:27:00,
2013-01-24 01:33:00,51.7,29.9,30.17,ENE,67,0.0,2.0,43,0.00,,,0.00,Wunderground v.1.15,2013-01-24 08:33:00,
2013-01-24 01:38:00,51.6,30.4,30.17,ENE,62,0.0,2.0,44,0.00,,,0.00,Wunderground v.1.15,2013-01-24 08:38:00,
2013-01-24 01:44:00,51.7,30.5,30.17,East,84,0.0,0.0,44,0.00,,,0.00,Wunderground v.1.15,2013-01-24 08:44:00,
2013-01-24 01:50:00,51.7,29.9,30.17,East,94,0.0,0.0,43,0.00,,,0.00,Wunderground v.1.15,2013-01-24 08:50:00,
2013-01-24 01:55:00,52.3,30.4,30.17,East,94,1.0,2.0,43,0.00,,,0.00,Wunderground v.1.15,2013-01-24 08:55:00,
2013-01-24 02:00:00,52.8,30.3,30.17,East,83,1.0,1.0,42,0.00,,,0.00,Wunderground v.1.15,2013-01-24 09:00:00,
2013-01-24 02:05:00,52.4,30.5,30.17,East,79,1.0,2.0,43,0.00,,,0.00,Wunderground v.1.15,2013-01-24 09:05:00,
2013-01-24 02:10:00,52.2,30.4,30.17,East,79,2.0,2.0,43,0.00,,,0.00,Wunderground v.1.15,2013-01-24 09:10:00,
2013-01-24 02:15:00,51.8,30.6,30.17,East,82,1.0,2.0,44,0.00,,,0.00,Wunderground v.1.15,2013-01-24 09:15:00,
2013-01-24 02:20:00,51.8,30.6,30.17,East,86,1.0,1.0,44,0.00,,,0.00,Wunderground v.1.15,2013-01-24 09:20:00,
2013-01-24 02:25:00,52.0,30.7,30.17,East,86,1.0,2.0,44,0.00,,,0.00,Wunderground v.1.15,2013-01-24 09:25:00,
2013-01-24 02:30:00,52.2,30.9,30.17,East,86,1.0,1.0,44,0.00,,,0.00,Wunderground v.1.15,2013-01-24 09:30:00,
2013-01-24 02:35:00,52.3,31.0,30.17,East,88,1.0,2.0,44,0.00,,,0.00,Wunderground v.1.15,2013-01-24 09:35:00,
2013-01-24 02:40:00,52.5,31.2,30.16,East,88,2.0,2.0,44,0.00,,,0.00,Wunderground v.1.15,2013-01-24 09:40:00,
2013-01-24 02:45:00,52.5,31.2,30.16,ENE,77,1.0,3.0,44,0.00,,,0.00,Wunderground v.1.15,2013-01-24 09:45:00,
2013-01-24 02:50:00,52.8,31.5,30.16,East,79,0.0,1.0,44,0.00,,,0.00,Wunderground v.1.15,2013-01-24 09:50:00,
2013-01-24 02:55:00,53.2,31.3,30.16,East,89,0.0,1.0,43,0.00,,,0.00,Wunderground v.1.15,2013-01-24 09:55:00,
2013-01-24 03:00:00,53.1,31.2,30.16,ENE,69,0.0,0.0,43,0.00,,,0.00,Wunderground v.1.15,2013-01-24 10:00:00,
2013-01-24 03:05:00,53.0,31.1,30.16,ENE,77,0.0,0.0,43,0.00,,,0.00,Wunderground v.1.15,2013-01-24 10:05:00,
2013-01-24 03:10:00,53.2,31.3,30.16,ENE,66,0.0,0.0,43,0.00,,,0.00,Wunderground v.1.15,2013-01-24 10:10:00,
2013-01-24 03:15:00,53.3,31.4,30.15,ENE,66,0.0,0.0,43,0.00,,,0.00,Wunderground v.1.15,2013-01-24 10:15:00,
2013-01-24 03:20:00,53.3,31.4,30.15,ENE,74,0.0,0.0,43,0.00,,,0.00,Wunderground v.1.15,2013-01-24 10:20:00,
2013-01-24 03:25:00,53.3,31.9,30.15,ENE,72,0.0,0.0,44,0.00,,,0.00,Wunderground v.1.15,2013-01-24 10:25:00,
2013-01-24 03:30:00,53.3,31.9,30.15,ENE,72,1.0,2.0,44,0.00,,,0.00,Wunderground v.1.15,2013-01-24 10:30:00,
2013-01-24 03:35:00,53.3,31.9,30.15,ENE,69,2.0,4.0,44,0.00,,,0.00,Wunderground v.1.15,2013-01-24 10:35:00,
2013-01-24 03:40:00,53.2,31.8,30.15,ENE,68,2.0,2.0,44,0.00,,,0.00,Wunderground v.1.15,2013-01-24 10:40:00,
2013-01-24 03:45:00,53.3,31.9,30.15,ENE,63,1.0,2.0,44,0.00,,,0.00,Wunderground v.1.15,2013-01-24 10:45:00,
2013-01-24 03:50:00,53.3,31.9,30.15,ENE,68,2.0,2.0,44,0.00,,,0.00,Wunderground v.1.15,2013-01-24 10:50:00,
2013-01-24 03:55:00,53.6,32.2,30.15,ENE,58,2.0,3.0,44,0.00,,,0.00,Wunderground v.1.15,2013-01-24 10:55:00,
2013-01-24 04:00:00,53.9,31.9,30.15,ENE,59,1.0,2.0,43,0.00,,,0.00,Wunderground v.1.15,2013-01-24 11:00:00,
2013-01-24 04:05:00,53.7,31.7,30.15,ENE,70,0.0,2.0,43,0.00,,,0.00,Wunderground v.1.15,2013-01-24 11:05:00,
2013-01-24 04:10:00,53.4,32.0,30.14,East,79,0.0,1.0,44,0.00,,,0.00,Wunderground v.1.15,2013-01-24 11:10:00,
2013-01-24 04:15:00,53.3,31.9,30.14,East,94,0.0,1.0,44,0.00,,,0.00,Wunderground v.1.15,2013-01-24 11:15:00,
2013-01-24 04:20:00,53.3,31.9,30.15,East,83,0.0,0.0,44,0.00,,,0.00,Wunderground v.1.15,2013-01-24 11:20:00,
2013-01-24 04:25:00,53.0,32.2,30.14,East,82,0.0,0.0,45,0.00,,,0.00,Wunderground v.1.15,2013-01-24 11:25:00,
2013-01-24 04:30:00,52.9,32.1,30.14,East,79,0.0,0.0,45,0.00,,,0.00,Wunderground v.1.15,2013-01-24 11:30:00,
2013-01-24 04:35:00,52.7,31.9,30.14,ENE,76,0.0,0.0,45,0.00,,,0.00,Wunderground v.1.15,2013-01-24 11:35:00,
2013-01-24 04:40:00,52.6,32.4,30.14,ENE,73,0.0,0.0,46,0.00,,,0.00,Wunderground v.1.15,2013-01-24 11:40:00,
2013-01-24 04:45:00,52.6,32.4,30.14,ENE,67,0.0,0.0,46,0.00,,,0.00,Wunderground v.1.15,2013-01-24 11:45:00,
2013-01-24 04:50:00,52.6,32.4,30.14,ENE,65,0.0,0.0,46,0.00,,,0.00,Wunderground v.1.15,2013-01-24 11:50:00,
2013-01-24 04:55:00,52.6,32.4,30.14,ENE,65,0.0,0.0,46,0.00,,,0.00,Wunderground v.1.15,2013-01-24 11:55:00,
2013-01-24 05:00:00,52.6,32.4,30.14,ENE,65,0.0,0.0,46,0.00,,,0.00,Wunderground v.1.15,2013-01-24 12:00:00,
2013-01-24 05:05:00,52.5,32.3,30.14,ENE,65,0.0,0.0,46,0.00,,,0.00,Wunderground v.1.15,2013-01-24 12:05:00,
2013-01-24 05:10:00,52.4,32.2,30.14,ENE,65,0.0,0.0,46,0.00,,,0.00,Wunderground v.1.15,2013-01-24 12:10:00,
2013-01-24 05:15:00,52.2,32.6,30.13,ENE,65,0.0,0.0,47,0.00,,,0.00,Wunderground v.1.15,2013-01-24 12:15:00,
2013-01-24 05:20:00,52.2,32.6,30.13,ENE,70,0.0,0.0,47,0.00,,,0.00,Wunderground v.1.15,2013-01-24 12:20:00,
2013-01-24 05:25:00,52.1,32.5,30.13,ENE,70,0.0,0.0,47,0.00,,,0.00,Wunderground v.1.15,2013-01-24 12:25:00,
2013-01-24 05:30:00,51.8,32.2,30.14,ENE,69,0.0,0.0,47,0.00,,,0.00,Wunderground v.1.15,2013-01-24 12:30:00,
2013-01-24 05:35:00,51.5,32.4,30.14,ENE,69,0.0,0.0,48,0.00,,,0.00,Wunderground v.1.15,2013-01-24 12:35:00,
2013-01-24 05:40:00,51.0,32.0,30.14,ENE,78,0.0,0.0,48,0.00,,,0.00,Wunderground v.1.15,2013-01-24 12:40:00,
2013-01-24 05:45:00,50.7,32.2,30.14,East,85,0.0,0.0,49,0.00,,,0.00,Wunderground v.1.15,2013-01-24 12:45:00,
2013-01-24 05:50:00,50.6,32.1,30.14,East,79,0.0,0.0,49,0.00,,,0.00,Wunderground v.1.15,2013-01-24 12:50:00,
2013-01-24 05:55:00,50.4,32.4,30.15,East,79,0.0,0.0,50,0.00,,,0.00,Wunderground v.1.15,2013-01-24 12:55:00,
2013-01-24 06:00:00,50.4,32.4,30.15,East,79,0.0,0.0,50,0.00,,,0.00,Wunderground v.1.15,2013-01-24 13:00:00,
2013-01-24 06:05:00,50.1,32.2,30.15,East,79,0.0,0.0,50,0.00,,,0.00,Wunderground v.1.15,2013-01-24 13:05:00,
2013-01-24 06:10:00,50.0,32.6,30.14,ENE,74,0.0,0.0,51,0.00,,,0.00,Wunderground v.1.15,2013-01-24 13:10:00,
2013-01-24 06:15:00,50.0,32.6,30.14,ENE,69,0.0,0.0,51,0.00,,,0.00,Wunderground v.1.15,2013-01-24 13:15:00,
2013-01-24 06:20:00,49.9,32.5,30.14,ENE,66,0.0,0.0,51,0.00,,,0.00,Wunderground v.1.15,2013-01-24 13:20:00,
2013-01-24 06:25:00,50.1,32.7,30.13,ENE,66,0.0,0.0,51,0.00,,,0.00,Wunderground v.1.15,2013-01-24 13:25:00,
2013-01-24 06:30:00,50.6,33.1,30.13,ENE,61,2.0,2.0,51,0.00,,,0.00,Wunderground v.1.15,2013-01-24 13:30:00,
2013-01-24 06:35:00,51.2,33.2,30.13,ENE,60,2.0,4.0,50,0.00,,,0.00,Wunderground v.1.15,2013-01-24 13:35:00,
2013-01-24 06:40:00,51.8,33.2,30.13,ENE,68,2.0,3.0,49,0.00,,,0.00,Wunderground v.1.15,2013-01-24 13:40:00,
2013-01-24 06:45:00,51.9,33.3,30.13,ENE,60,4.0,4.0,49,0.00,,,0.00,Wunderground v.1.15,2013-01-24 13:45:00,
2013-01-24 06:50:00,52.1,33.5,30.13,ENE,66,0.0,4.0,49,0.00,,,0.00,Wunderground v.1.15,2013-01-24 13:50:00,
2013-01-24 06:55:00,52.4,33.3,30.13,ENE,72,0.0,4.0,48,0.00,,,0.00,Wunderground v.1.15,2013-01-24 13:55:00,
2013-01-24 07:00:00,52.4,33.3,30.13,ENE,75,0.0,0.0,48,0.00,,,0.00,Wunderground v.1.15,2013-01-24 14:00:00,
2013-01-24 07:05:00,52.3,33.2,30.13,ENE,68,0.0,0.0,48,0.00,,,0.00,Wunderground v.1.15,2013-01-24 14:05:00,
2013-01-24 07:10:00,52.2,33.1,30.13,ENE,73,0.0,0.0,48,0.00,,,0.00,Wunderground v.1.15,2013-01-24 14:10:00,
2013-01-24 07:15:00,52.2,33.1,30.13,ENE,75,0.0,0.0,48,0.00,,,0.00,Wunderground v.1.15,2013-01-24 14:15:00,
2013-01-24 07:20:00,52.2,33.6,30.14,ENE,75,0.0,0.0,49,0.00,,,0.00,Wunderground v.1.15,2013-01-24 14:20:00,
2013-01-24 07:25:00,52.2,33.6,30.14,East,97,0.0,0.0,49,0.00,,,0.00,Wunderground v.1.15,2013-01-24 14:25:00,
2013-01-24 07:30:00,52.4,33.8,30.14,East,98,0.0,0.0,49,0.00,,,0.00,Wunderground v.1.15,2013-01-24 14:30:00,
2013-01-24 07:35:00,52.6,33.5,30.14,East,98,0.0,0.0,48,0.00,,,0.00,Wunderground v.1.15,2013-01-24 14:35:00,
2013-01-24 07:40:00,52.8,33.6,30.15,East,97,0.0,0.0,48,0.00,,,0.00,Wunderground v.1.15,2013-01-24 14:40:00,
2013-01-24 07:45:00,53.2,33.5,30.15,East,97,0.0,0.0,47,0.00,,,0.00,Wunderground v.1.15,2013-01-24 14:45:00,
2013-01-24 07:50:00,53.5,33.7,30.15,East,96,0.0,0.0,47,0.00,,,0.00,Wunderground v.1.15,2013-01-24 14:50:00,
2013-01-24 07:55:00,53.9,33.6,30.15,East,96,0.0,0.0,46,0.00,,,0.00,Wunderground v.1.15,2013-01-24 14:55:00,
2013-01-24 08:00:00,54.2,33.9,30.15,East,96,0.0,0.0,46,0.00,,,0.00,Wunderground v.1.15,2013-01-24 15:00:00,
2013-01-24 08:06:00,54.6,33.7,30.15,East,94,0.0,0.0,45,0.00,,,0.00,Wunderground v.1.15,2013-01-24 15:06:00,
2013-01-24 08:11:00,55.1,34.1,30.15,East,94,0.0,0.0,45,0.00,,,0.00,Wunderground v.1.15,2013-01-24 15:11:00,
2013-01-24 08:16:00,55.3,34.3,30.15,East,85,0.0,0.0,45,0.00,,,0.00,Wunderground v.1.15,2013-01-24 15:16:00,
2013-01-24 08:21:00,55.4,34.4,30.14,ENE,75,0.0,0.0,45,0.00,,,0.00,Wunderground v.1.15,2013-01-24 15:21:00,
2013-01-24 08:26:00,55.8,34.8,30.14,ENE,71,0.0,0.0,45,0.00,,,0.00,Wunderground v.1.15,2013-01-24 15:26:00,
2013-01-24 08:31:00,56.5,35.4,30.14,East,85,0.0,0.0,45,0.00,,,0.00,Wunderground v.1.15,2013-01-24 15:31:00,
2013-01-24 08:36:00,57.2,35.5,30.15,East,100,0.0,0.0,44,0.00,,,0.00,Wunderground v.1.15,2013-01-24 15:36:00,
2013-01-24 08:41:00,57.7,35.3,30.15,ESE,110,0.0,0.0,43,0.00,,,0.00,Wunderground v.1.15,2013-01-24 15:41:00,
2013-01-24 08:46:00,58.3,35.3,30.14,ESE,110,0.0,0.0,42,0.00,,,0.00,Wunderground v.1.15,2013-01-24 15:46:00,
2013-01-24 08:50:00,58.8,35.7,30.14,East,89,0.0,0.0,42,0.00,,,0.00,Wunderground v.1.15,2013-01-24 15:50:00,
2013-01-24 08:55:00,59.3,35.6,30.14,East,89,0.0,0.0,41,0.00,,,0.00,Wunderground v.1.15,2013-01-24 15:55:00,
2013-01-24 09:00:00,59.7,35.3,30.15,East,89,0.0,0.0,40,0.00,,,0.00,Wunderground v.1.15,2013-01-24 16:00:00,
2013-01-24 09:05:00,60.0,35.0,30.15,SSE,163,0.0,0.0,39,0.00,,,0.00,Wunderground v.1.15,2013-01-24 16:05:00,
2013-01-24 09:10:00,60.1,35.7,30.15,SSE,163,0.0,0.0,40,0.00,,,0.00,Wunderground v.1.15,2013-01-24 16:10:00,
2013-01-24 09:15:00,60.2,35.1,30.15,South,188,0.0,0.0,39,0.00,,,0.00,Wunderground v.1.15,2013-01-24 16:15:00,
2013-01-24 09:20:00,60.3,35.2,30.15,South,171,0.0,0.0,39,0.00,,,0.00,Wunderground v.1.15,2013-01-24 16:20:00,
2013-01-24 09:25:00,60.5,35.4,30.15,SSE,165,0.0,0.0,39,0.00,,,0.00,Wunderground v.1.15,2013-01-24 16:25:00,
2013-01-24 09:30:00,60.7,34.9,30.15,South,184,0.0,0.0,38,0.00,,,0.00,Wunderground v.1.15,2013-01-24 16:30:00,
2013-01-24 09:35:00,60.9,34.4,30.16,SSE,164,4.0,5.0,37,0.00,,,0.00,Wunderground v.1.15,2013-01-24 16:35:00,
2013-01-24 09:40:00,61.0,33.8,30.15,SSE,160,4.0,4.0,36,0.00,,,0.00,Wunderground v.1.15,2013-01-24 16:40:00,
2013-01-24 09:45:00,61.2,34.0,30.16,SSE,158,2.0,5.0,36,0.00,,,0.00,Wunderground v.1.15,2013-01-24 16:45:00,
2013-01-24 09:50:00,61.4,33.5,30.16,South,176,2.0,3.0,35,0.00,,,0.00,Wunderground v.1.15,2013-01-24 16:50:00,
2013-01-24 09:55:00,61.9,33.9,30.16,SSE,152,2.0,5.0,35,0.00,,,0.00,Wunderground v.1.15,2013-01-24 16:55:00,
2013-01-24 10:00:00,62.2,33.5,30.16,SE,145,2.0,2.0,34,0.00,,,0.00,Wunderground v.1.15,2013-01-24 17:00:00,
2013-01-24 10:05:00,62.4,33.6,30.16,SSW,195,2.0,4.0,34,0.00,,,0.00,Wunderground v.1.15,2013-01-24 17:05:00,
2013-01-24 10:10:00,62.6,33.8,30.16,SSE,152,2.0,4.0,34,0.00,,,0.00,Wunderground v.1.15,2013-01-24 17:10:00,
2013-01-24 10:15:00,62.8,34.0,30.16,SSE,167,2.0,4.0,34,0.00,,,0.00,Wunderground v.1.15,2013-01-24 17:15:00,
2013-01-24 10:20:00,63.0,34.2,30.16,SSW,210,3.0,4.0,34,0.00,,,0.00,Wunderground v.1.15,2013-01-24 17:20:00,
2013-01-24 10:25:00,63.0,34.2,30.16,SSE,163,3.0,6.0,34,0.00,,,0.00,Wunderground v.1.15,2013-01-24 17:25:00,
2013-01-24 10:30:00,63.0,34.2,30.16,SSE,166,4.0,5.0,34,0.00,,,0.00,Wunderground v.1.15,2013-01-24 17:30:00,
2013-01-24 10:35:00,63.1,34.3,30.16,South,176,4.0,7.0,34,0.00,,,0.00,Wunderground v.1.15,2013-01-24 17:35:00,
2013-01-24 10:40:00,63.3,33.7,30.16,South,184,6.0,6.0,33,0.00,,,0.00,Wunderground v.1.15,2013-01-24 17:40:00,
2013-01-24 10:45:00,63.5,33.9,30.16,SSW,204,6.0,8.0,33,0.00,,,0.00,Wunderground v.1.15,2013-01-24 17:45:00,
2013-01-24 10:51:00,63.9,34.2,30.16,SSE,150,6.0,6.0,33,0.00,,,0.00,Wunderground v.1.15,2013-01-24 17:51:00,
2013-01-24 10:56:00,64.3,33.8,30.16,SSE,161,5.0,8.0,32,0.00,,,0.00,Wunderground v.1.15,2013-01-24 17:56:00,
2013-01-24 11:01:00,64.6,34.1,30.15,South,183,3.0,6.0,32,0.00,,,0.00,Wunderground v.1.15,2013-01-24 18:01:00,
2013-01-24 11:06:00,64.9,34.3,30.15,South,169,5.0,6.0,32,0.00,,,0.00,Wunderground v.1.15,2013-01-24 18:06:00,
2013-01-24 11:11:00,65.4,34.8,30.15,SSW,194,3.0,5.0,32,0.00,,,0.00,Wunderground v.1.15,2013-01-24 18:11:00,
2013-01-24 11:16:00,66.2,34.7,30.15,SW,214,1.0,6.0,31,0.00,,,0.00,Wunderground v.1.15,2013-01-24 18:16:00,
2013-01-24 11:21:00,66.3,34.7,30.15,SW,219,3.0,5.0,31,0.00,,,0.00,Wunderground v.1.15,2013-01-24 18:21:00,
2013-01-24 11:26:00,66.1,34.6,30.15,SW,221,2.0,7.0,31,0.00,,,0.00,Wunderground v.1.15,2013-01-24 18:26:00,
2013-01-24 11:31:00,66.0,34.5,30.15,South,181,2.0,7.0,31,0.00,,,0.00,Wunderground v.1.15,2013-01-24 18:31:00,
2013-01-24 11:36:00,66.3,34.7,30.15,SSW,207,3.0,8.0,31,0.00,,,0.00,Wunderground v.1.15,2013-01-24 18:36:00,
2013-01-24 11:41:00,66.2,34.7,30.15,SW,218,5.0,6.0,31,0.00,,,0.00,Wunderground v.1.15,2013-01-24 18:41:00,
2013-01-24 11:46:00,66.6,35.0,30.15,West,269,3.0,7.0,31,0.00,,,0.00,Wunderground v.1.15,2013-01-24 18:46:00,
2013-01-24 11:51:00,66.4,34.8,30.15,SW,225,4.0,4.0,31,0.00,,,0.00,Wunderground v.1.15,2013-01-24 18:51:00,
2013-01-24 11:56:00,65.9,35.2,30.14,West,266,5.0,8.0,32,0.00,,,0.00,Wunderground v.1.15,2013-01-24 18:56:00,
2013-01-24 12:01:00,65.9,35.2,30.14,WSW,254,2.0,4.0,32,0.00,,,0.00,Wunderground v.1.15,2013-01-24 19:01:00,
2013-01-24 12:06:00,65.9,35.2,30.14,SSW,198,2.0,6.0,32,0.00,,,0.00,Wunderground v.1.15,2013-01-24 19:06:00,
2013-01-24 12:11:00,65.8,35.1,30.14,West,271,2.0,5.0,32,0.00,,,0.00,Wunderground v.1.15,2013-01-24 19:11:00,
2013-01-24 12:16:00,65.8,35.1,30.14,WSW,252,3.0,7.0,32,0.00,,,0.00,Wunderground v.1.15,2013-01-24 19:16:00,
2013-01-24 12:21:00,65.9,35.2,30.14,West,277,2.0,6.0,32,0.00,,,0.00,Wunderground v.1.15,2013-01-24 19:21:00,
2013-01-24 12:26:00,65.8,35.1,30.13,WSW,245,3.0,6.0,32,0.00,,,0.00,Wunderground v.1.15,2013-01-24 19:26:00,
2013-01-24 12:31:00,65.7,35.0,30.13,WSW,255,0.0,3.0,32,0.00,,,0.00,Wunderground v.1.15,2013-01-24 19:31:00,
2013-01-24 12:36:00,65.8,35.1,30.13,WSW,252,1.0,3.0,32,0.00,,,0.00,Wunderground v.1.15,2013-01-24 19:36:00,
2013-01-24 12:41:00,65.6,34.9,30.12,West,277,2.0,4.0,32,0.00,,,0.00,Wunderground v.1.15,2013-01-24 19:41:00,
2013-01-24 12:46:00,65.1,34.5,30.12,NW,311,2.0,4.0,32,0.00,,,0.00,Wunderground v.1.15,2013-01-24 19:46:00,
2013-01-24 12:51:00,64.7,34.9,30.12,WNW,298,0.0,2.0,33,0.00,,,0.00,Wunderground v.1.15,2013-01-24 19:51:00,
2013-01-24 12:56:00,64.7,35.7,30.12,West,264,2.0,2.0,34,0.00,,,0.00,Wunderground v.1.15,2013-01-24 19:56:00,
2013-01-24 13:01:00,64.7,35.7,30.12,West,262,0.0,1.0,34,0.00,,,0.00,Wunderground v.1.15,2013-01-24 20:01:00,
2013-01-24 13:06:00,64.8,35.0,30.11,NW,307,4.0,6.0,33,0.00,,,0.00,Wunderground v.1.15,2013-01-24 20:06:00,
2013-01-24 13:11:00,64.8,35.0,30.11,WNW,291,4.0,5.0,33,0.00,,,0.00,Wunderground v.1.15,2013-01-24 20:11:00,
2013-01-24 13:16:00,64.5,35.5,30.11,WNW,285,2.0,6.0,34,0.00,,,0.00,Wunderground v.1.15,2013-01-24 20:16:00,
2013-01-24 13:21:00,64.3,36.0,30.11,WNW,295,5.0,9.0,35,0.00,,,0.00,Wunderground v.1.15,2013-01-24 20:21:00,
2013-01-24 13:26:00,63.7,35.5,30.11,WNW,290,6.0,9.0,35,0.00,,,0.00,Wunderground v.1.15,2013-01-24 20:26:00,
2013-01-24 13:31:00,63.1,36.4,30.10,NW,304,3.0,10.0,37,0.00,,,0.00,Wunderground v.1.15,2013-01-24 20:31:00,
2013-01-24 13:36:00,62.4,35.8,30.10,NW,319,5.0,10.0,37,0.00,,,0.00,Wunderground v.1.15,2013-01-24 20:36:00,
2013-01-24 13:41:00,62.0,36.1,30.10,NW,317,6.0,7.0,38,0.00,,,0.00,Wunderground v.1.15,2013-01-24 20:41:00,
2013-01-24 13:46:00,61.9,36.7,30.10,WNW,297,5.0,8.0,39,0.00,,,0.00,Wunderground v.1.15,2013-01-24 20:46:00,
2013-01-24 13:51:00,61.7,35.8,30.09,NW,307,3.0,7.0,38,0.00,,,0.00,Wunderground v.1.15,2013-01-24 20:51:00,
2013-01-24 13:56:00,61.7,35.8,30.09,NW,318,8.0,9.0,38,0.00,,,0.00,Wunderground v.1.15,2013-01-24 20:56:00,
2013-01-24 14:01:00,61.5,35.6,30.09,NW,318,6.0,9.0,38,0.00,,,0.00,Wunderground v.1.15,2013-01-24 21:01:00,
2013-01-24 14:06:00,61.3,36.8,30.10,NW,314,7.0,9.0,40,0.00,,,0.00,Wunderground v.1.15,2013-01-24 21:06:00,
2013-01-24 14:11:00,61.2,37.3,30.09,NNW,333,4.0,7.0,41,0.00,,,0.00,Wunderground v.1.15,2013-01-24 21:11:00,
2013-01-24 14:16:00,60.7,39.2,30.09,NW,312,2.0,9.0,45,0.00,,,0.00,Wunderground v.1.15,2013-01-24 21:16:00,
2013-01-24 14:21:00,60.3,38.9,30.09,NNW,331,6.0,8.0,45,0.00,,,0.00,Wunderground v.1.15,2013-01-24 21:21:00,
2013-01-24 14:26:00,60.2,38.8,30.09,NW,316,5.0,8.0,45,0.00,,,0.00,Wunderground v.1.15,2013-01-24 21:26:00,
2013-01-24 14:31:00,60.4,38.9,30.08,NNW,336,4.0,8.0,45,0.00,,,0.00,Wunderground v.1.15,2013-01-24 21:31:00,
2013-01-24 14:36:00,60.5,39.0,30.08,North,349,7.0,9.0,45,0.00,,,0.00,Wunderground v.1.15,2013-01-24 21:36:00,
2013-01-24 14:41:00,60.5,38.5,30.08,NW,323,5.0,7.0,44,0.00,,,0.00,Wunderground v.1.15,2013-01-24 21:41:00,
2013-01-24 14:46:00,60.5,38.5,30.08,NNE,28,4.0,8.0,44,0.00,,,0.00,Wunderground v.1.15,2013-01-24 21:46:00,
2013-01-24 14:51:00,60.8,38.7,30.08,NNE,32,5.0,6.0,44,0.00,,,0.00,Wunderground v.1.15,2013-01-24 21:51:00,
2013-01-24 14:56:00,60.8,39.9,30.08,NNE,20,4.0,6.0,46,0.00,,,0.00,Wunderground v.1.15,2013-01-24 21:56:00,
2013-01-24 15:01:00,60.9,40.0,30.07,NNE,27,5.0,6.0,46,0.00,,,0.00,Wunderground v.1.15,2013-01-24 22:01:00,
2013-01-24 15:06:00,61.2,39.7,30.07,NNE,19,6.0,7.0,45,0.00,,,0.00,Wunderground v.1.15,2013-01-24 22:06:00,
2013-01-24 15:11:00,61.6,40.0,30.07,NE,34,3.0,4.0,45,0.00,,,0.00,Wunderground v.1.15,2013-01-24 22:11:00,
2013-01-24 15:16:00,61.7,39.6,30.07,NE,47,2.0,6.0,44,0.00,,,0.00,Wunderground v.1.15,2013-01-24 22:16:00,
2013-01-24 15:21:00,61.8,39.6,30.07,ENE,70,2.0,5.0,44,0.00,,,0.00,Wunderground v.1.15,2013-01-24 22:21:00,
2013-01-24 15:26:00,61.8,39.1,30.07,ENE,73,1.0,5.0,43,0.00,,,0.00,Wunderground v.1.15,2013-01-24 22:26:00,
2013-01-24 15:31:00,62.0,39.8,30.07,ENE,76,0.0,2.0,44,0.00,,,0.00,Wunderground v.1.15,2013-01-24 22:31:00,
2013-01-24 15:36:00,62.3,39.5,30.08,ENE,75,0.0,2.0,43,0.00,,,0.00,Wunderground v.1.15,2013-01-24 22:36:00,
2013-01-24 15:41:00,62.4,39.6,30.08,ESE,114,0.0,0.0,43,0.00,,,0.00,Wunderground v.1.15,2013-01-24 22:41:00,
2013-01-24 15:46:00,62.5,39.7,30.08,WNW,288,0.0,0.0,43,0.00,,,0.00,Wunderground v.1.15,2013-01-24 22:46:00,
2013-01-24 15:51:00,62.3,40.1,30.08,WNW,288,3.0,3.0,44,0.00,,,0.00,Wunderground v.1.15,2013-01-24 22:51:00,
2013-01-24 15:56:00,61.6,40.6,30.09,WNW,293,3.0,6.0,46,0.00,,,0.00,Wunderground v.1.15,2013-01-24 22:56:00,
2013-01-24 16:01:00,60.7,40.9,30.09,NW,306,3.0,6.0,48,0.00,,,0.00,Wunderground v.1.15,2013-01-24 23:01:00,
2013-01-24 16:06:00,60.3,41.0,30.08,WNW,303,3.0,6.0,49,0.00,,,0.00,Wunderground v.1.15,2013-01-24 23:06:00,
2013-01-24 16:11:00,60.1,40.9,30.08,NW,307,5.0,6.0,49,0.00,,,0.00,Wunderground v.1.15,2013-01-24 23:11:00,
2013-01-24 16:16:00,60.0,41.3,30.08,NW,317,4.0,7.0,50,0.00,,,0.00,Wunderground v.1.15,2013-01-24 23:16:00,
2013-01-24 16:21:00,59.9,42.7,30.09,NW,323,3.0,4.0,53,0.00,,,0.00,Wunderground v.1.15,2013-01-24 23:21:00,
2013-01-24 16:26:00,59.7,42.0,30.09,NW,314,7.0,7.0,52,0.00,,,0.00,Wunderground v.1.15,2013-01-24 23:26:00,
2013-01-24 16:31:00,59.4,42.3,30.09,NW,323,2.0,4.0,53,0.00,,,0.00,Wunderground v.1.15,2013-01-24 23:31:00,
2013-01-24 16:36:00,59.2,42.6,30.09,NNW,336,2.0,5.0,54,0.00,,,0.00,Wunderground v.1.15,2013-01-24 23:36:00,
2013-01-24 16:41:00,59.1,42.9,30.09,WNW,298,0.0,2.0,55,0.00,,,0.00,Wunderground v.1.15,2013-01-24 23:41:00,
2013-01-24 16:46:00,59.0,42.4,30.09,NW,322,0.0,2.0,54,0.00,,,0.00,Wunderground v.1.15,2013-01-24 23:46:00,
2013-01-24 16:51:00,58.9,43.2,30.09,WSW,257,0.0,0.0,56,0.00,,,0.00,Wunderground v.1.15,2013-01-24 23:51:00,
2013-01-24 16:56:00,58.6,42.0,30.09,NNW,338,0.0,0.0,54,0.00,,,0.00,Wunderground v.1.15,2013-01-24 23:56:00,
2013-01-24 17:01:00,58.7,42.6,30.09,NE,34,0.0,0.0,55,0.00,,,0.00,Wunderground v.1.15,2013-01-25 00:01:00,
2013-01-24 17:06:00,58.7,42.1,30.09,NNE,33,0.0,0.0,54,0.00,,,0.00,Wunderground v.1.15,2013-01-25 00:06:00,
2013-01-24 17:11:00,58.6,42.9,30.09,NNE,33,0.0,0.0,56,0.00,,,0.00,Wunderground v.1.15,2013-01-25 00:11:00,
2013-01-24 17:16:00,58.6,42.9,30.09,NNE,32,0.0,0.0,56,0.00,,,0.00,Wunderground v.1.15,2013-01-25 00:16:00,
2013-01-24 17:21:00,58.5,42.8,30.09,NNE,33,0.0,0.0,56,0.00,,,0.00,Wunderground v.1.15,2013-01-25 00:21:00,
2013-01-24 17:26:00,58.4,43.2,30.10,NNE,33,0.0,0.0,57,0.00,,,0.00,Wunderground v.1.15,2013-01-25 00:26:00,
2013-01-24 17:31:00,58.0,43.7,30.10,NW,306,4.0,4.0,59,0.00,,,0.00,Wunderground v.1.15,2013-01-25 00:31:00,
2013-01-24 17:36:00,57.5,43.3,30.10,NW,309,2.0,5.0,59,0.00,,,0.00,Wunderground v.1.15,2013-01-25 00:36:00,
2013-01-24 17:41:00,57.2,43.0,30.11,NNW,333,0.0,2.0,59,0.00,,,0.00,Wunderground v.1.15,2013-01-25 00:41:00,
2013-01-24 17:46:00,57.0,43.2,30.11,NNW,333,0.0,2.0,60,0.00,,,0.00,Wunderground v.1.15,2013-01-25 00:46:00,
2013-01-24 17:51:00,56.7,43.0,30.11,NNW,338,0.0,0.0,60,0.00,,,0.00,Wunderground v.1.15,2013-01-25 00:51:00,
2013-01-24 17:56:00,56.4,43.1,30.11,NW,317,0.0,0.0,61,0.00,,,0.00,Wunderground v.1.15,2013-01-25 00:56:00,
2013-01-24 18:01:00,56.1,43.3,30.11,NW,326,0.0,0.0,62,0.00,,,0.00,Wunderground v.1.15,2013-01-25 01:01:00,
2013-01-24 18:06:00,55.9,43.1,30.11,North,349,1.0,2.0,62,0.00,,,0.00,Wunderground v.1.15,2013-01-25 01:06:00,
2013-01-24 18:11:00,55.7,42.9,30.11,NNW,337,2.0,3.0,62,0.00,,,0.00,Wunderground v.1.15,2013-01-25 01:11:00,
2013-01-24 18:16:00,55.6,42.8,30.11,NNW,342,1.0,3.0,62,0.00,,,0.00,Wunderground v.1.15,2013-01-25 01:16:00,
2013-01-24 18:21:00,55.4,42.6,30.11,North,360,1.0,2.0,62,0.00,,,0.00,Wunderground v.1.15,2013-01-25 01:21:00,
2013-01-24 18:26:00,55.3,42.5,30.11,NNW,345,3.0,4.0,62,0.00,,,0.00,Wunderground v.1.15,2013-01-25 01:26:00,
2013-01-24 18:31:00,55.3,42.5,30.11,North,360,2.0,4.0,62,0.00,,,0.00,Wunderground v.1.15,2013-01-25 01:31:00,
2013-01-24 18:36:00,55.2,42.0,30.11,North,6,2.0,4.0,61,0.00,,,0.00,Wunderground v.1.15,2013-01-25 01:36:00,
2013-01-24 18:42:00,55.1,41.9,30.12,North,7,1.0,2.0,61,0.00,,,0.00,Wunderground v.1.15,2013-01-25 01:42:00,
2013-01-24 18:47:00,54.9,41.7,30.11,NE,34,1.0,3.0,61,0.00,,,0.00,Wunderground v.1.15,2013-01-25 01:47:00,
2013-01-24 18:52:00,54.6,41.8,30.12,NNE,31,1.0,2.0,62,0.00,,,0.00,Wunderground v.1.15,2013-01-25 01:52:00,
2013-01-24 18:57:00,54.3,41.6,30.12,NNE,31,0.0,2.0,62,0.00,,,0.00,Wunderground v.1.15,2013-01-25 01:57:00,
2013-01-24 19:02:00,54.1,41.4,30.12,NNE,32,1.0,2.0,62,0.00,,,0.00,Wunderground v.1.15,2013-01-25 02:02:00,
2013-01-24 19:07:00,54.0,41.7,30.12,NE,44,1.0,2.0,63,0.00,,,0.00,Wunderground v.1.15,2013-01-25 02:07:00,
2013-01-24 19:12:00,54.0,41.7,30.12,NE,41,2.0,2.0,63,0.00,,,0.00,Wunderground v.1.15,2013-01-25 02:12:00,
2013-01-24 19:17:00,54.1,41.4,30.13,NE,36,0.0,3.0,62,0.00,,,0.00,Wunderground v.1.15,2013-01-25 02:17:00,
2013-01-24 19:22:00,54.1,41.4,30.13,NE,37,0.0,1.0,62,0.00,,,0.00,Wunderground v.1.15,2013-01-25 02:22:00,
2013-01-24 19:27:00,54.2,41.5,30.13,NNE,23,0.0,1.0,62,0.00,,,0.00,Wunderground v.1.15,2013-01-25 02:27:00,
2013-01-24 19:32:00,54.3,41.1,30.13,NNE,22,0.0,0.0,61,0.00,,,0.00,Wunderground v.1.15,2013-01-25 02:32:00,
2013-01-24 19:37:00,54.5,41.3,30.13,NNE,22,0.0,0.0,61,0.00,,,0.00,Wunderground v.1.15,2013-01-25 02:37:00,
2013-01-24 19:42:00,54.6,41.4,30.13,NNE,23,0.0,0.0,61,0.00,,,0.00,Wunderground v.1.15,2013-01-25 02:42:00,
2013-01-24 19:47:00,54.7,41.1,30.13,NNE,15,0.0,0.0,60,0.00,,,0.00,Wunderground v.1.15,2013-01-25 02:47:00,
2013-01-24 19:52:00,54.6,41.0,30.13,NNE,32,0.0,0.0,60,0.00,,,0.00,Wunderground v.1.15,2013-01-25 02:52:00,
2013-01-24 19:57:00,54.6,41.0,30.12,NE,36,0.0,0.0,60,0.00,,,0.00,Wunderground v.1.15,2013-01-25 02:57:00,
2013-01-24 20:02:00,54.6,41.0,30.12,NE,39,0.0,0.0,60,0.00,,,0.00,Wunderground v.1.15,2013-01-25 03:02:00,
2013-01-24 20:07:00,54.7,41.1,30.12,NE,41,0.0,0.0,60,0.00,,,0.00,Wunderground v.1.15,2013-01-25 03:07:00,
2013-01-24 20:12:00,54.8,41.2,30.12,NE,41,0.0,0.0,60,0.00,,,0.00,Wunderground v.1.15,2013-01-25 03:12:00,
2013-01-24 20:17:00,54.6,41.0,30.12,NE,41,0.0,0.0,60,0.00,,,0.00,Wunderground v.1.15,2013-01-25 03:17:00,
2013-01-24 20:22:00,54.5,40.9,30.12,NE,47,0.0,0.0,60,0.00,,,0.00,Wunderground v.1.15,2013-01-25 03:22:00,
2013-01-24 20:27:00,54.5,40.9,30.12,NE,47,0.0,0.0,60,0.00,,,0.00,Wunderground v.1.15,2013-01-25 03:27:00,
2013-01-24 20:32:00,54.5,40.9,30.12,NE,45,0.0,0.0,60,0.00,,,0.00,Wunderground v.1.15,2013-01-25 03:32:00,
2013-01-24 20:37:00,54.3,41.1,30.13,NE,46,0.0,0.0,61,0.00,,,0.00,Wunderground v.1.15,2013-01-25 03:37:00,
2013-01-24 20:42:00,54.1,40.9,30.13,NE,46,0.0,0.0,61,0.00,,,0.00,Wunderground v.1.15,2013-01-25 03:42:00,
2013-01-24 20:47:00,54.1,40.9,30.13,NE,45,0.0,0.0,61,0.00,,,0.00,Wunderground v.1.15,2013-01-25 03:47:00,
2013-01-24 20:52:00,53.9,40.8,30.13,NE,45,0.0,0.0,61,0.00,,,0.00,Wunderground v.1.15,2013-01-25 03:52:00,
2013-01-24 20:57:00,53.9,41.2,30.13,NE,45,0.0,0.0,62,0.00,,,0.00,Wunderground v.1.15,2013-01-25 03:57:00,
2013-01-24 21:01:00,54.0,40.8,30.13,NE,46,0.0,0.0,61,0.00,,,0.00,Wunderground v.1.15,2013-01-25 04:01:00,
2013-01-24 21:07:00,54.3,41.1,30.13,NE,45,0.0,0.0,61,0.00,,,0.00,Wunderground v.1.15,2013-01-25 04:07:00,
2013-01-24 21:12:00,54.5,41.3,30.13,NE,45,0.0,0.0,61,0.00,,,0.00,Wunderground v.1.15,2013-01-25 04:12:00,
2013-01-24 21:17:00,54.5,41.3,30.14,NE,45,0.0,0.0,61,0.00,,,0.00,Wunderground v.1.15,2013-01-25 04:17:00,
2013-01-24 21:21:00,54.2,41.0,30.13,NNE,31,0.0,0.0,61,0.00,,,0.00,Wunderground v.1.15,2013-01-25 04:21:00,
2013-01-24 21:26:00,54.2,41.0,30.13,NNE,19,0.0,0.0,61,0.00,,,0.00,Wunderground v.1.15,2013-01-25 04:26:00,
2013-01-24 21:31:00,54.1,40.9,30.13,NNE,25,0.0,0.0,61,0.00,,,0.00,Wunderground v.1.15,2013-01-25 04:31:00,
2013-01-24 21:36:00,53.9,41.2,30.13,NE,35,0.0,0.0,62,0.00,,,0.00,Wunderground v.1.15,2013-01-25 04:36:00,
2013-01-24 21:41:00,53.7,41.0,30.14,NE,35,0.0,0.0,62,0.00,,,0.00,Wunderground v.1.15,2013-01-25 04:41:00,
2013-01-24 21:46:00,53.3,41.0,30.13,ENE,65,0.0,0.0,63,0.00,,,0.00,Wunderground v.1.15,2013-01-25 04:46:00,
2013-01-24 21:51:00,52.9,41.0,30.13,ENE,66,2.0,3.0,64,0.00,,,0.00,Wunderground v.1.15,2013-01-25 04:51:00,
2013-01-24 21:56:00,53.1,41.2,30.14,ENE,67,0.0,3.0,64,0.00,,,0.00,Wunderground v.1.15,2013-01-25 04:56:00,
2013-01-24 22:01:00,53.2,41.3,30.14,ENE,66,0.0,1.0,64,0.00,,,0.00,Wunderground v.1.15,2013-01-25 05:01:00,
2013-01-24 22:03:00,53.2,41.3,30.14,ENE,67,0.0,1.0,64,0.00,,,0.00,Wunderground v.1.15,2013-01-25 05:03:00,
2013-01-24 22:08:00,53.1,41.2,30.14,ENE,66,0.0,1.0,64,0.00,,,0.00,Wunderground v.1.15,2013-01-25 05:08:00,
2013-01-24 22:14:00,53.0,41.5,30.15,ENE,66,0.0,0.0,65,0.00,,,0.00,Wunderground v.1.15,2013-01-25 05:14:00,
2013-01-24 22:19:00,52.9,41.4,30.15,ENE,66,0.0,0.0,65,0.00,,,0.00,Wunderground v.1.15,2013-01-25 05:19:00,
2013-01-24 22:24:00,52.6,41.6,30.15,ENE,66,0.0,0.0,66,0.00,,,0.00,Wunderground v.1.15,2013-01-25 05:24:00,
2013-01-24 22:29:00,52.5,41.5,30.15,ENE,66,0.0,0.0,66,0.00,,,0.00,Wunderground v.1.15,2013-01-25 05:29:00,
2013-01-24 22:34:00,52.0,41.4,30.15,ENE,66,0.0,0.0,67,0.00,,,0.00,Wunderground v.1.15,2013-01-25 05:34:00,
2013-01-24 22:39:00,51.6,41.4,30.15,West,274,0.0,0.0,68,0.00,,,0.00,Wunderground v.1.15,2013-01-25 05:39:00,
2013-01-24 22:44:00,51.4,41.6,30.15,SW,219,0.0,4.0,69,0.00,,,0.00,Wunderground v.1.15,2013-01-25 05:44:00,
2013-01-24 22:49:00,51.3,41.1,30.15,SW,219,0.0,4.0,68,0.00,,,0.00,Wunderground v.1.15,2013-01-25 05:49:00,
2013-01-24 22:54:00,51.3,41.1,30.15,SSE,150,0.0,0.0,68,0.00,,,0.00,Wunderground v.1.15,2013-01-25 05:54:00,
2013-01-24 22:59:00,51.3,41.1,30.15,ESE,103,0.0,0.0,68,0.00,,,0.00,Wunderground v.1.15,2013-01-25 05:59:00,
2013-01-24 23:04:00,51.0,41.2,30.15,East,91,0.0,0.0,69,0.00,,,0.00,Wunderground v.1.15,2013-01-25 06:04:00,
2013-01-24 23:09:00,50.2,40.8,30.14,East,92,0.0,0.0,70,0.00,,,0.00,Wunderground v.1.15,2013-01-25 06:09:00,
2013-01-24 23:14:00,49.6,40.9,30.14,East,91,0.0,0.0,72,0.00,,,0.00,Wunderground v.1.15,2013-01-25 06:14:00,
2013-01-24 23:19:00,49.9,41.2,30.14,East,82,0.0,2.0,72,0.00,,,0.00,Wunderground v.1.15,2013-01-25 06:19:00,
2013-01-24 23:24:00,50.3,40.9,30.14,East,86,0.0,0.0,70,0.00,,,0.00,Wunderground v.1.15,2013-01-25 06:24:00,
2013-01-24 23:29:00,50.7,40.9,30.15,East,101,0.0,0.0,69,0.00,,,0.00,Wunderground v.1.15,2013-01-25 06:29:00,
2013-01-24 23:34:00,50.9,41.1,30.15,ESE,103,0.0,0.0,69,0.00,,,0.00,Wunderground v.1.15,2013-01-25 06:34:00,
2013-01-24 23:39:00,50.8,41.0,30.15,ESE,105,0.0,0.0,69,0.00,,,0.00,Wunderground v.1.15,2013-01-25 06:39:00,
2013-01-24 23:44:00,50.8,41.0,30.15,ESE,112,0.0,0.0,69,0.00,,,0.00,Wunderground v.1.15,2013-01-25 06:44:00,
2013-01-24 23:49:00,50.6,41.2,30.15,SE,141,0.0,0.0,70,0.00,,,0.00,Wunderground v.1.15,2013-01-25 06:49:00,
2013-01-24 23:54:00,50.8,41.4,30.14,SSE,156,0.0,0.0,70,0.00,,,0.00,Wunderground v.1.15,2013-01-25 06:54:00,
2013-01-24 23:59:00,51.0,41.2,30.14,East,91,0.0,0.0,69,0.00,,,0.00,Wunderground v.1.15,2013-01-25 06:59:00,